#timestamp,LO_Frequency,Hit,Temp,Hum 
1479794415.6,286046966.4,N,0.0,0.0
1479794435.5,286046966.3,N,0.0,0.0
1479794455.3,286046968.7,N,0.0,0.0
1479794475.1,286046966.7,N,0.0,0.0
1479794495.9,286046967.0,N,0.0,0.0
1479794515.7,286046967.0,N,0.0,0.0
1479794535.5,286046966.6,N,0.0,0.0
1479794555.4,286046967.3,N,0.0,0.0
1479794575.2,286046967.2,N,0.0,0.0
1479794595.1,286046964.6,N,0.0,0.0
1479794596.0,286046964.6,N,0.0,0.0
1479794615.8,286046966.9,N,0.0,0.0
1479794635.6,286046966.7,N,0.0,0.0
1479794655.5,286046966.5,N,0.0,0.0
1479794675.3,286046966.8,N,0.0,0.0
1479794695.2,286046966.4,N,0.0,0.0
1479794715.9,286046967.1,N,0.0,0.0
1479794735.7,286046965.0,N,0.0,0.0
1479794755.6,286046964.5,N,0.0,0.0
1479794775.4,286046967.2,N,0.0,0.0
1479794795.2,286046967.2,N,0.0,0.0
1479794815.1,286046964.5,N,0.0,0.0
1479794816.0,286046964.5,N,0.0,0.0
1479794835.8,286046965.3,N,0.0,0.0
1479794855.7,286046965.2,N,0.0,0.0
1479794875.5,286046965.9,N,0.0,0.0
1479794895.3,286046965.6,N,0.0,0.0
1479794915.2,286046965.9,N,0.0,0.0
1479794935.0,286046965.4,N,0.0,0.0
1479794935.9,286046965.4,N,0.0,0.0
1479794955.8,286046962.9,N,0.0,0.0
1479794975.6,286046963.4,N,0.0,0.0
1479794995.4,286046963.8,N,0.0,0.0
1479795015.3,286046963.4,N,0.0,0.0
1479795035.1,286046963.2,N,0.0,0.0
1479795055.8,286046963.8,N,0.0,0.0
1479795075.7,286046964.3,N,0.0,0.0
1479795095.5,286046963.6,N,0.0,0.0
1479795115.4,286046961.7,N,0.0,0.0
1479795135.2,286046964.4,N,0.0,0.0
1479795155.0,286046961.6,N,0.0,0.0
1479795155.9,286046961.6,N,0.0,0.0
1479795175.8,286046962.3,N,0.0,0.0
1479795195.6,286046962.4,N,0.0,0.0
1479795215.5,286046959.8,N,0.0,0.0
1479795235.3,286046959.9,N,0.0,0.0
1479795255.1,286046962.7,N,0.0,0.0
1479795275.9,286046960.2,N,0.0,0.0
1479795295.7,286046960.0,N,0.0,0.0
1479795315.5,286046960.6,N,0.0,0.0
1479795335.4,286046962.6,N,0.0,0.0
1479795355.2,286046960.3,N,0.0,0.0
1479795375.1,286046960.9,N,0.0,0.0
1479795376.0,286046960.9,N,0.0,0.0
1479795395.8,286046960.8,N,0.0,0.0
1479795415.6,286046960.4,N,0.0,0.0
1479795435.5,286046958.1,N,0.0,0.0
1479795455.3,286046958.2,N,0.0,0.0
1479795475.1,286046958.3,N,0.0,0.0
1479795495.9,286046958.1,N,0.0,0.0
1479795515.7,286046959.4,N,0.0,0.0
1479795535.6,286046959.1,N,0.0,0.0
1479795555.4,286046959.1,N,0.0,0.0
1479795575.2,286046959.4,N,0.0,0.0
1479795595.1,286046956.9,N,0.0,0.0
1479795596.0,286046956.9,N,0.0,0.0
1479795615.8,286046959.2,N,0.0,0.0
1479795635.7,286046956.5,N,0.0,0.0
1479795655.5,286046959.1,N,0.0,0.0
1479795675.3,286046957.8,N,0.0,0.0
1479795695.2,286046957.7,N,0.0,0.0
1479795715.0,286046957.6,N,0.0,0.0
1479795715.9,286046957.6,N,0.0,0.0
1479795735.8,286046957.7,N,0.0,0.0
1479795755.6,286046957.7,N,0.0,0.0
1479795775.4,286046957.7,N,0.0,0.0
1479795795.3,286046957.4,N,0.0,0.0
1479795815.1,286046956.6,N,0.0,0.0
1479795816.0,286046956.6,N,0.0,0.0
1479795835.8,286046957.7,N,0.0,0.0
1479795855.7,286046957.4,N,0.0,0.0
1479795875.5,286046957.6,N,0.0,0.0
1479795895.4,286046956.8,N,0.0,0.0
1479795915.2,286046957.2,N,0.0,0.0
1479795935.0,286046956.9,N,0.0,0.0
1479795935.9,286046956.9,N,0.0,0.0
1479795955.8,286046957.3,N,0.0,0.0
1479795975.6,286046957.2,N,0.0,0.0
1479795995.4,286046957.6,N,0.0,0.0
1479796015.3,286046958.0,N,0.0,0.0
1479796035.1,286046955.2,N,0.0,0.0
1479796055.9,286046957.5,N,0.0,0.0
1479796075.7,286046955.4,N,0.0,0.0
1479796095.5,286046955.9,N,0.0,0.0
1479796115.4,286046955.6,N,0.0,0.0
1479796135.2,286046955.1,N,0.0,0.0
1479796155.0,286046955.8,N,0.0,0.0
1479796156.0,286046955.8,N,0.0,0.0
1479796175.8,286046955.7,N,0.0,0.0
1479796195.6,286046955.5,N,0.0,0.0
1479796215.5,286046955.2,N,0.0,0.0
1479796235.3,286046956.4,N,0.0,0.0
1479796255.1,286046956.0,N,0.0,0.0
1479796275.9,286046953.4,N,0.0,0.0
1479796295.7,286046956.4,N,0.0,0.0
1479796315.6,286046954.2,N,0.0,0.0
1479796335.4,286046954.7,N,0.0,0.0
1479796355.2,286046954.6,N,0.0,0.0
1479796375.1,286046954.2,N,0.0,0.0
1479796376.0,286046954.2,N,0.0,0.0
1479796395.8,286046951.7,N,0.0,0.0
1479796415.6,286046952.2,N,0.0,0.0
1479796435.5,286046951.9,N,0.0,0.0
1479796455.3,286046951.9,N,0.0,0.0
1479796475.2,286046953.0,N,0.0,0.0
1479796495.9,286046950.1,N,0.0,0.0
1479796515.7,286046950.1,N,0.0,0.0
1479796535.6,286046952.7,N,0.0,0.0
1479796555.4,286046950.1,N,0.0,0.0
1479796575.2,286046950.3,N,0.0,0.0
1479796595.1,286046950.9,N,0.0,0.0
1479796596.0,286046950.9,N,0.0,0.0
1479796615.8,286046950.2,N,0.0,0.0
1479796635.7,286046950.1,N,0.0,0.0
1479796655.5,286046950.4,N,0.0,0.0
1479796675.3,286046950.1,N,0.0,0.0
1479796695.2,286046950.1,N,0.0,0.0
1479796715.0,286046950.1,N,0.0,0.0
1479796715.9,286046950.1,N,0.0,0.0
1479796735.8,286046953.2,N,0.0,0.0
1479796755.6,286046950.3,N,0.0,0.0
1479796775.4,286046953.0,N,0.0,0.0
1479796795.3,286046950.7,N,0.0,0.0
1479796815.1,286046950.2,N,0.0,0.0
1479796835.8,286046951.3,N,0.0,0.0
1479796855.7,286046950.7,N,0.0,0.0
1479796875.5,286046948.6,N,0.0,0.0
1479796895.4,286046951.6,N,0.0,0.0
1479796915.2,286046949.0,N,0.0,0.0
1479796935.0,286046951.4,N,0.0,0.0
1479796935.9,286046951.4,N,0.0,0.0
1479796955.8,286046951.6,N,0.0,0.0
1479796975.6,286046950.9,N,0.0,0.0
1479796995.5,286046948.6,N,0.0,0.0
1479797015.3,286046948.7,N,0.0,0.0
1479797035.1,286046947.3,N,0.0,0.0
1479797055.9,286046947.6,N,0.0,0.0
1479797075.7,286046947.6,N,0.0,0.0
1479797095.5,286046949.6,N,0.0,0.0
1479797115.4,286046947.3,N,0.0,0.0
1479797135.2,286046947.1,N,0.0,0.0
1479797155.0,286046947.4,N,0.0,0.0
1479797156.0,286046947.4,N,0.0,0.0
1479797175.8,286046949.6,N,0.0,0.0
1479797195.6,286046949.7,N,0.0,0.0
1479797215.5,286046948.9,N,0.0,0.0
1479797235.3,286046950.4,N,0.0,0.0
1479797255.1,286046950.6,N,0.0,0.0
1479797275.9,286046951.1,N,0.0,0.0
1479797295.7,286046951.2,N,0.0,0.0
1479797315.6,286046951.6,N,0.0,0.0
1479797335.4,286046951.3,N,0.0,0.0
1479797355.2,286046949.0,N,0.0,0.0
1479797375.1,286046950.8,N,0.0,0.0
1479797376.0,286046950.8,N,0.0,0.0
1479797395.8,286046952.0,N,0.0,0.0
1479797415.6,286046956.0,N,0.0,0.0
1479797435.5,286046956.2,N,0.0,0.0
1479797455.3,286046955.7,N,0.0,0.0
1479797475.2,286046956.3,N,0.0,0.0
1479797495.9,286046955.9,N,0.0,0.0
1479797515.7,286046953.8,N,0.0,0.0
1479797535.6,286046953.3,N,0.0,0.0
1479797555.4,286046955.8,N,0.0,0.0
1479797575.2,286046955.0,N,0.0,0.0
1479797595.1,286046955.2,N,0.0,0.0
1479797596.0,286046955.2,N,0.0,0.0
1479797615.8,286046955.0,N,0.0,0.0
1479797635.7,286046957.7,N,0.0,0.0
1479797655.5,286046959.4,N,0.0,0.0
1479797675.3,286046961.1,N,0.0,0.0
1479797695.2,286046961.0,N,0.0,0.0
1479797715.0,286046960.5,N,0.0,0.0
1479797715.9,286046960.5,N,0.0,0.0
1479797735.8,286046962.8,N,0.0,0.0
1479797755.6,286046960.3,N,0.0,0.0
1479797775.4,286046959.9,N,0.0,0.0
1479797795.3,286046962.0,N,0.0,0.0
1479797815.1,286046963.5,N,0.0,0.0
1479797835.9,286046961.8,N,0.0,0.0
1479797855.7,286046964.2,N,0.0,0.0
1479797875.5,286046963.5,N,0.0,0.0
1479797895.4,286046963.8,N,0.0,0.0
1479797915.2,286046961.3,N,0.0,0.0
1479797935.0,286046963.1,N,0.0,0.0
1479797935.9,286046963.1,N,0.0,0.0
1479797955.8,286046965.9,N,0.0,0.0
1479797975.6,286046964.8,N,0.0,0.0
1479797995.5,286046965.3,N,0.0,0.0
